Find Starlink 4390

NORAD ID: 53653 Int'l Des: 2022-105 Owner: SPXS Country: US Constellation: starlink operational
LEOCIRCULARRETROGRADESSO

現在のビュー

3D地球を読み込み中...

About Starlink 4390

Starlink 4390 (NORAD 53653) is a starlink constellation satellite (v1.5) launched Aug 31, 2022 by SPXS of US. It operates in LEO, CIRCULAR, RETROGRADE, SSO orbit with a mass of 300.00 kg.

Starlink 4390について

説明を読み込み中...

次回通過

Passes for default location (London). Set your location on the main map for personalized predictions.

高度履歴

Loading altitude history...

軌道要素

1 53653U 22105F 26171.43853088 .00036411 00000-0 62623-3 0 9995
2 53653 97.6024 54.5925 0001185 119.8728 240.2641 15.51030837208892
Epoch: Jun 20, 2026 • Age: 22 hours

現在のステータス

高度 425.5 km
速度 7.65 km/s
衛星直下点 -29.86°S, 29.29°E
打ち上げ日 Aug 31, 2022
運用期間 3.8 years
タイプ internet

技術仕様

分類 Payload
質量 300.00 kg
乾燥質量 290.00 kg
総質量 300.00 kg
長さ 0.20 m
直径 2.80 m
スパン 9.00 m
形状 Box + pan
製造者 SPXS
バスタイプ Starlink
フェーズステータス In Orbit
所有者/国 SPXS/US

Most Searched